ラッセル第1彗星

83D/Russell 1 (2006)

English version
Home page
Updated on September 12, 2009

---------------------------------------------------------------------

・ プロフィール

・ 軌道要素

Epoch 2006 Apr. 15.0 TT = JDT 2453840.5
T 2006 Apr. 7.7445 TT                                   MPCN
q   2.171785             (2000.0)            P               Q
n   0.1294128      Peri.  333.7771      -0.9232464      +0.3142526
a   3.870952       Node   226.4197      -0.2764530      -0.9428937
e   0.438953       Incl.   17.7666      -0.2668143      -0.1104393
P   7.62
From 20 observations 1979-1985, mean residual 1".3.

・ 光度変化

        m1 = 14.0 + 5 logΔ + 20 log r

---------------------------------------------------------------------

軌道要素はMPCのEphemerides and Orbital Elementsに掲載されたものです。
光度グラフはComet for Windowsで作成したものです。

---------------------------------------------------------------------

Copyright(C) Seiichi Yoshida (comet@aerith.net). All rights reserved.